Location: Newark
(41.0400°S, 62.7845°W)
Time: 02:55:08
(UTC+00:00)

Transit 2A - Pass Details

Date: 01 December 2021
Orbit: 591 x 967 km, 66.7° (Epoch: 20 January)

Event Time Altitude Azimuth Distance (km) Brightness Sun altitude
Rises 03:17:11 0° 230° (SW) 2,867 9.7 -26.4°
Reaches altitude 10° 03:20:20 10° 255° (WSW) 1,978 8.4 -26.5°
Enters shadow 03:21:46 13° 274° (W) 1,769 7.9 -26.5°
Maximum altitude 03:22:40 14° 287° (WNW) 1,736 - -26.5°
Drops below altitude 10° 03:25:03 10° 319° (NW) 2,028 - -26.6°
Sets 03:28:23 0° 343° (NNW) 2,991 - -26.7°
